Location: Acton
(51.4942°N, 0.2232°W)
Time: 14:10:28
(UTC+00:00)

Okean 1-7 Rocket - Pass Details

Date: 22 January 2021
Orbit: 615 x 650 km, 82.5° (Epoch: 28 February)

Event Time Altitude Azimuth Distance (km) Brightness Sun altitude
Exits shadow 05:46:13 43° 274° (W) 904 3.9 -19.3°
Maximum altitude 05:46:24 43° 267° (W) 901 3.9 -19.2°
Drops below altitude 10° 05:50:39 10° 196° (SSW) 2,024 6.1 -18.6°
Sets 05:52:57 0° 190° (S) 2,922 7.0 -18.2°
